Jefferson, NC

6:36 PM EDT on May 21, 2018 (GMT -0400)
Ashe County

Weather History for KGEV - December, 2006

Change the Weather History Date:

Thursday, December 14, 2006

  Actual Average Record
Temperature  
Mean Temperature 48 °F -  
Max Temperature 60 °F 48 °F 68 °F (1984)
Min Temperature 37 °F 26 °F 6 °F (2010)
Degree Days  
Heating Degree Days 16    
Moisture  
Dew Point 32 °F    
Average Humidity 57    
Maximum Humidity 81    
Minimum Humidity 10    
Precipitation  
Precipitation 0.00 in - - ()
Sea Level Pressure  
Sea Level Pressure 30.08 in    
Wind  
Wind Speed 2 mph (WSW)    
Max Wind Speed 12 mph    
Max Gust Speed 16 mph    
Visibility 10 miles    
Events      
Averages and records for this station are not official NWS values.
T = Trace of Precipitation, MM = Missing Value Source: NWS Daily Summary

Daily Weather History Graph

Daily Weather History Graph

Search for Another Location

Airport or City:

Astronomy

Dec. 14, 2006 Rise Set
Actual Time 7:29 AM EST 5:11 PM EST
Civil Twilight 7:00 AM EST 5:40 PM EST
Nautical Twilight 6:28 AM EST 6:12 PM EST
Astronomical Twilight 5:57 AM EST 6:43 PM EST
Moon 1:46 AM EST (12/14) 1:22 PM EST (12/14)
Length of Visible Light 10h 39m
Length of Day
9h 41m
Waning Crescent, 31% of the Moon is Illuminated
Dec 14
Waning Crescent
Dec 20
New
Dec 27
First Quarter
Jan 3
Full
Jan 11
Last Quarter

Hourly Weather History & Observations

Time (EST) Temp. Windchill Dew Point Humidity Pressure Visibility Wind Dir Wind Speed Gust Speed Precip Events Conditions
12:02 AM 46.4 °F - 33.8 °F 62% 30.16 in 10.0 mi Calm Calm - N/A   Clear
12:22 AM 42.8 °F - 32.0 °F 66% 30.15 in 10.0 mi Calm Calm - N/A   Clear
12:42 AM 41.0 °F 39.0 °F 32.0 °F 70% 30.15 in 10.0 mi West 3.5 mph - N/A   Clear
1:02 AM 42.8 °F - 32.0 °F 66% 30.16 in 10.0 mi Calm Calm - N/A   Clear
1:22 AM 44.6 °F - 32.0 °F 61% 30.16 in 10.0 mi Calm Calm - N/A   Clear
2:02 AM 42.8 °F - 32.0 °F 66% 30.15 in 10.0 mi Calm Calm - N/A   Clear
2:22 AM 41.0 °F 38.0 °F 32.0 °F 70% 30.15 in 10.0 mi NW 4.6 mph - N/A   Clear
3:02 AM 42.8 °F - 33.8 °F 70% 30.15 in 10.0 mi Calm Calm - N/A   Clear
3:22 AM 46.4 °F - 33.8 °F 62% 30.14 in 10.0 mi Calm Calm - N/A   Clear
3:42 AM 46.4 °F - 33.8 °F 62% 30.14 in 10.0 mi Calm Calm - N/A   Clear
4:02 AM 46.4 °F 45.2 °F 33.8 °F 62% 30.13 in 10.0 mi WSW 3.5 mph - N/A   Clear
4:22 AM 46.4 °F - 33.8 °F 62% 30.13 in 10.0 mi Calm Calm - N/A   Clear
4:42 AM 46.4 °F 45.2 °F 35.6 °F 66% 30.13 in 10.0 mi West 3.5 mph - N/A   Clear
5:02 AM 46.4 °F 45.2 °F 35.6 °F 66% 30.12 in 10.0 mi West 3.5 mph - N/A   Clear
5:22 AM 37.4 °F - 30.2 °F 75% 30.12 in 10.0 mi Calm Calm - N/A   Clear
5:42 AM 42.8 °F - 35.6 °F 76% 30.11 in 10.0 mi Calm Calm - N/A   Clear
6:02 AM 39.2 °F 37.0 °F 33.8 °F 81% 30.11 in 10.0 mi NNW 3.5 mph - N/A   Clear
6:22 AM 41.0 °F 39.0 °F 33.8 °F 76% 30.11 in 10.0 mi North 3.5 mph - N/A   Clear
6:42 AM 42.8 °F 40.1 °F 35.6 °F 76% 30.12 in 10.0 mi NW 4.6 mph - N/A   Clear
7:02 AM 42.8 °F 41.1 °F 35.6 °F 76% 30.12 in 10.0 mi NW 3.5 mph - N/A   Clear
7:22 AM 42.8 °F - 35.6 °F 76% 30.13 in 10.0 mi Calm Calm - N/A   Clear
8:02 AM 41.0 °F - 33.8 °F 76% 30.13 in 7.0 mi Calm Calm - N/A   Clear
8:22 AM 41.0 °F - 35.6 °F 81% 30.13 in 10.0 mi Calm Calm - N/A   Clear
8:43 AM 42.8 °F - 35.6 °F 76% 30.13 in 7.0 mi Calm Calm - N/A   Clear
9:02 AM 44.6 °F - 35.6 °F 71% 30.13 in 10.0 mi Calm Calm - N/A   Clear
9:22 AM 44.6 °F - 35.6 °F 71% 30.13 in 10.0 mi Calm Calm - N/A   Clear
9:42 AM 46.4 °F - 35.6 °F 66% 30.13 in 10.0 mi Calm Calm - N/A   Clear
10:02 AM 48.2 °F - 37.4 °F 66% 30.14 in 10.0 mi Calm Calm - N/A   Clear
10:22 AM 51.8 °F - 37.4 °F 58% 30.13 in 10.0 mi Calm Calm - N/A   Clear
10:42 AM 50.0 °F - 35.6 °F 58% 30.13 in 10.0 mi Calm Calm - N/A   Clear
11:02 AM 53.6 °F - 37.4 °F 54% 30.13 in 10.0 mi Calm Calm - N/A   Clear
11:22 AM 53.6 °F - 37.4 °F 54% 30.12 in 10.0 mi East 3.5 mph - N/A   Clear
11:42 AM 53.6 °F - 35.6 °F 51% 30.11 in 10.0 mi Calm Calm - N/A   Clear
12:02 PM 57.2 °F - 37.4 °F 48% 30.09 in 10.0 mi East 3.5 mph - N/A   Clear
12:22 PM 57.2 °F - 33.8 °F 41% 30.09 in 10.0 mi Calm Calm - N/A   Clear
12:42 PM 59.0 °F - 30.2 °F 34% 30.08 in 10.0 mi West 4.6 mph - N/A   Clear
1:02 PM 59.0 °F - 28.4 °F 31% 30.07 in 10.0 mi NNW 3.5 mph - N/A   Clear
1:22 PM 59.0 °F - 24.8 °F 27% 30.06 in 10.0 mi WNW 4.6 mph - N/A   Clear
1:43 PM 60.8 °F - 17.6 °F 19% 30.04 in 10.0 mi West 10.4 mph - N/A   Clear
2:02 PM 60.8 °F - 15.8 °F 17% 30.04 in 10.0 mi West 11.5 mph - N/A   Clear
2:22 PM 60.8 °F - 8.6 °F 13% 30.03 in 10.0 mi West 9.2 mph 16.1 mph N/A   Clear
2:42 PM 60.8 °F - 3.2 °F 10% 30.03 in 10.0 mi West 5.8 mph - N/A   Clear
3:02 PM 60.8 °F - 8.6 °F 13% 30.02 in 10.0 mi West 8.1 mph - N/A   Clear
3:22 PM 60.8 °F - 10.4 °F 14% 30.01 in 10.0 mi West 6.9 mph - N/A   Clear
4:02 PM 59.0 °F - 30.2 °F 34% 30.01 in 10.0 mi Calm Calm - N/A   Clear
4:22 PM 55.4 °F - 33.8 °F 44% 30.02 in 10.0 mi Calm Calm - N/A   Clear
4:42 PM 55.4 °F - 35.6 °F 47% 30.02 in 10.0 mi Calm Calm - N/A   Clear
5:02 PM 53.6 °F - 35.6 °F 51% 30.02 in 10.0 mi SW 3.5 mph - N/A   Clear
5:22 PM 53.6 °F - 35.6 °F 51% 30.02 in 10.0 mi Calm Calm - N/A   Clear
5:42 PM 51.8 °F - 35.6 °F 54% 30.02 in 10.0 mi Calm Calm - N/A   Clear
6:02 PM 51.8 °F - 37.4 °F 58% 30.02 in 10.0 mi SSE 3.5 mph - N/A   Clear
6:22 PM 50.0 °F - 37.4 °F 62% 30.02 in 10.0 mi Calm Calm - N/A   Clear
7:02 PM 48.2 °F - 35.6 °F 62% 30.01 in 10.0 mi SSE 3.5 mph - N/A   Clear
7:22 PM 46.4 °F 45.2 °F 35.6 °F 66% 30.00 in 10.0 mi South 3.5 mph - N/A   Clear
7:42 PM 46.4 °F 44.3 °F 33.8 °F 62% 30.00 in 10.0 mi South 4.6 mph - N/A   Clear
8:03 PM 48.2 °F - 35.6 °F 62% 30.01 in 10.0 mi Calm Calm - N/A   Clear
8:24 PM 46.4 °F - 35.6 °F 66% 30.00 in 10.0 mi Calm Calm - N/A   Clear
8:43 PM 48.2 °F - 35.6 °F 62% 30.00 in 10.0 mi Calm Calm - N/A   Clear
9:02 PM 48.2 °F - 35.6 °F 62% 30.00 in 10.0 mi Calm Calm - N/A   Clear
9:23 PM 46.4 °F 45.2 °F 35.6 °F 66% 29.99 in 10.0 mi SSE 3.5 mph - N/A   Clear
9:42 PM 46.4 °F 45.2 °F 35.6 °F 66% 29.98 in 10.0 mi SE 3.5 mph - N/A   Clear
10:02 PM 46.4 °F - 35.6 °F 66% 29.98 in 10.0 mi Calm Calm - N/A   Clear
10:22 PM 46.4 °F - 35.6 °F 66% 29.98 in 10.0 mi Calm Calm - N/A   Clear
10:42 PM 46.4 °F - 35.6 °F 66% 29.98 in 10.0 mi Calm Calm - N/A   Clear
11:02 PM 46.4 °F - 35.6 °F 66% 29.98 in 10.0 mi Calm Calm - N/A   Clear
11:22 PM 46.4 °F - 35.6 °F 66% 29.97 in 10.0 mi Calm Calm - N/A   Clear
11:42 PM 44.6 °F - 35.6 °F 71% 29.97 in 10.0 mi Calm Calm - N/A   Clear